Location: �chenoz-la-M�line
(47.6009°N, 6.1354°E)
Time: 12:07:35
(UTC+00:00)

USA 306 - Pass Details

Date: 27 January 2021
Orbit: 569 x 574 km, 54.0° (Epoch: 28 February)

Event Time Altitude Azimuth Distance (km) Brightness Sun altitude
Exits shadow 05:02:20 57° 229° (SW) 675 2.9 -21.1°
Maximum altitude 05:03:10 84° 150° (SSE) 577 2.8 -21.0°
Drops below altitude 10° 05:07:27 10° 61° (ENE) 1,874 6.3 -20.3°
Sets 05:09:42 0° 60° (ENE) 2,775 7.3 -19.9°
